Showing default

COSMOS 1912, 18791

Orbit data source: Space-Track

COSMOS 1912, 18791 is a payload satellite owned by UNKS (CIS) in LEO that was launched on Fri, 15 Jan 1988 UTC via a TSIKLON-3 launch vehicle from the Plesetsk Missile And Space Complex (PKMTR). Payload-class satellites include a variety of spacecraft equipped with specific instruments for various scientific and technological missions. These include communications satellites like Starlink; space stations such as the ISS; scientific satellites like the Hubble; Earth observation satellites from companies like Planet Labs, Umbra, and HawkEye 360; GPS; miniature CubeSats for education and research; and military/defense satellites.

Loading next visibility...
Identifier
18791, 1988-002D
Orbit
LEO
Country
Flag of CISCIS
Related business
Manufacturer
NPO PM
Mission
Defense Communications
Bus & Motor
STRELA-3, Unknown motor
Mass
225 kg wet, 225 kg dry
Launch date (UTC)
1988-01-15 (38 years ago)
Launch vehicle
TSIKLON-3
Launch site
Plesetsk Missile And Space Complex (PKMTR)
Object type
Payload
Rocket body
Debris
Shape & HBR
Cyl, 0.8 m
Radar Cross Section
1.257 m², Large (>1 m²)

Expand to show TLE details & history
Last TLE update: 1 day ago

TLE from 1 day ago
0 COSMOS 1912
1 18791U 88002D   25305.27670582  .00000010  00000-0 -34281-5 0  9991
2 18791  82.6139  24.0983 0009501 258.4915 156.6401 12.65063680745075
Epoch: 2025-11-01T06:38Z
TLE epoch observation values (Epoch: 2025-11-01T06:38:27.382Z)
Latitude
54.5889°
Longitude
-105.87164°
Altitude
1,417.852 km
Speed
7.154 km/s
True Right ascension
02h 18m 12s
True Declination
54° 26' 24"
Sunlit
Object was in full shadow at epoch
Visualization orbit readout
Latitude
Unknown
Longitude
Unknown
Altitude
Unknown
Speed
Unknown
Apparent Right ascension
Unknown
Apparent Declination
Unknown
Sunlit
N/A
Visualization observer readout
Local Sidereal Time
12:25:01
Azimuth
Unknown
Elevation
Unknown
Doppler factor
Unknown
Orbital elements
Apogee altitude
1,406.818 km
Perigee altitude
1,392.04 km
Semi-major axis
7,777.566 km
Eccentricity
0.00095
Inclination
82.6139°
RAAN
24.0983°
Arg. of periapsis
258.4915°
True anomaly
156.68322°
Mean anomaly
156.6401°
Eccentric anomaly
156.66167°
Mean motion
3.1643 °/min
Orbital period
113.77 mins
BSTAR
-0.0000034281
Loading maneuver chart data...
Computing Atmospheric mass density...
Loading historical data...
Loading historical data...
Loading historical data...
Loading historical data...
Loading historical data...
Loading historical data...
Loading historical data...

Documentation

Showing up to 5 results
|